Find Starlink 34056

NORAD ID: 63841 Int'l Des: 2025-093 Owner: SPXS Country: US Constellation: starlink operational
LEOCIRCULAR

当前视图

正在加载3D地球...

About Starlink 34056

Starlink 34056 (NORAD 63841) is a starlink constellation satellite (v2 mini) launched May 7, 2025 by SPXS of US. It operates in LEO, CIRCULAR orbit with a mass of 575.00 kg.

关于 Starlink 34056

正在加载描述...

即将过境

Passes for default location (London). Set your location on the main map for personalized predictions.

高度历史

Loading altitude history...

两行轨道根数

1 63841U 25093F 26191.18408317 .00014997 00000-0 55307-3 0 9995
2 63841 42.9971 106.3330 0001470 260.1711 99.8974 15.27598857 66489
Epoch: Jul 10, 2026 • Age: 13 hours

当前状态

高度 482.9 km
远地点 / 近地点 N/A
速度 7.63 km/s
星下点 -2.45°S, 90.57°E
发射日期 May 7, 2025
运行时间 1.1 years
类型 internet

技术详情

分类 Payload
质量 575.00 kg
干质量 530.00 kg
总质量 575.00 kg
长度 0.30 m
直径 4.10 m
跨度 29.00 m
形状 Box + pan
制造商 SPXS
平台类型 Starlink V2MO
阶段状态 In Orbit
所有者/国家 SPXS/US

Most Searched